KUIPER-00046

导读

KUIPER-00046是美国亚马逊柯伊伯卫星互联网项目的一颗低轨卫星,于2025年6月23日发射,目前处于在轨运行状态。卫星运行在近地轨道,近地点约619.56千米、远地点约636.67千米,轨道倾角51.9度。 作为柯伊伯星座规划的3236颗卫星之一,它将和其他卫星共同为全球尤其是偏远区域提供高速低延迟的互联网接入,还可整合亚马逊云服务,支撑物联网、国防等多领域应用,是项目大规模部署阶段的重要组成卫星。

Basic Information
目录编号:
64506
目录名称:
KUIPER-00046
国际标识:
2025-134G
轨道中心:
EARTH
卫星名称:
KUIPER-00046
卫星全名:
KUIPER-00046
卫星状态:
在轨 (已飞行449 天)
发射日期:
2025-06-23 UTC
国别 :
美国 (US)
星等 :
--
This satellite is enrolled in the Space Conjunction Data Service (SCDS) and the current flight risk assessment level is: No High Risk
Orbit Information
数据来源 国际轨道数据 AOE轨道数据
星历时间 2026-09-15T23:33:46+0800
8小时前
查看轨道信息
2026-09-14T22:00:00+0800
1天前
查看轨道信息
半长轴 7007.685km 7007.69km
偏心率 0.0000999 0.000103
轨道倾角 51.898° 51.898°
近地点辐角 100.425° 130.220°
升交点赤经 123.025° 127.737°
平近点角 259.683° 311.772°
近地点 628.847km 628.831km
远地点 630.249km 630.275km
周期 97.302分钟 97.302分钟
每日圈数 14.799291 14.799278
Detailed Information
使用方式:
暂无
2D Orbit Map
3D Orbit Map
Orbit Altitude Analysis Chart
Orbit Inclination Analysis Chart
Orbit Comprehensive Analysis Chart
View Comprehensive Chart
Miss Distance Evolution Trend with All Objects Subscribe to Flight Safety Assessment
Collision Probability Evolution Trend with All Objects Subscribe to Flight Safety Assessment